sat.trackr.live / text

‹ back to catalog

STARLINK-32130

NORAD 60585 · 2024-150C

PAYLOAD ACTIVE UNKNOWN

§ Identity

Operator
Country
US
Launch date
2024-08-20
Launch site
AFETR
Launch vehicle
Mass (kg)
RCS (m²)

Purposes: comms

External: N2YO · Heavens-Above · Gunter

§ Orbital elements

Epoch: 2026-05-24T21:11:52.392192Z

Period
94.11 min
Inclination
53.1622°
Eccentricity
0.0001742
Mean motion
15.30102777 rev/d
Perigee alt
474.3 km
Apogee alt
476.7 km
Semi-major
6,853.6 km
B*
7.4492e-4
RAAN
313.3505°
Arg perigee
85.1801°
Mean anomaly
274.9398°
Rev number
9,962

§ Raw data

STARLINK-321301 60585U 24150C   26144.88324528  .00021702  00000+0  74492-3 0  99932 60585  53.1622 313.3505 0001742  85.1801 274.9398 15.30102777 99623

JSON: /api/v1/satellites/60585 · /tle

For live sub-satellite position, see the globe view (requires WebGL).

§ Visibility from observer

Set your observer location to see the next 7 days of passes ≥ 10°. The values pass through the URL so the page stays shareable.

No JS? Fill the form by hand. The geolocation button needs JavaScript.